Regional Weather Roundup
Issued by NWS New Orleans/Baton Rouge, LA

Home | Current Version | Previous Version | Graphics & Text | Print | Product List | Glossary Off
Versions: 1 2 3 4 5 6 7 8 9 10 11 12 13 14 15 16 17 18 19 20 21 22 23 24 25 26 27 28 29 30 31 32 33 34 35 36 37 38 39 40 41 42 43 44 45 46 47 48 49 50

828
ASUS44 KLIX 281310
RWRLIX
NEW ORLEANS REGIONAL WEATHER ROUNDUP
NATIONAL WEATHER SERVICE NEW ORLEANS LA
700 AM CST SAT FEB 28 2015

NOTE: "FAIR" INDICATES FEW OR NO CLOUDS BELOW 12,000 FEET WITH NO
      SIGNIFICANT WEATHER AND/OR OBSTRUCTIONS TO VISIBILITY.
      SKY/WX - SKY CONDITION AND SIGNIFICANT WEATHER.
      TMP - AIR TEMPERATURE.     DP    - DEWPOINT TEMPERATURE.
      RH  - RELATIVE HUMIDITY.   PRES  - PRESSURE.
      HI  - HEAT INDEX.          WCI   - WIND CHILL INDEX.

*  THESE STATIONS ARE NOT NWS OR FAA STATIONS AND ARE NOT UNDER
   NWS QUALITY CONTROL.

LAZ038-040-048-061>063-065>067-069-281400-
SOUTHEAST LOUISIANA

CITY           SKY/WX    TMP DP  RH WIND       PRES   REMARKS
N.O. AUDUBON     N/A     43  32  67 MISG        N/A
N.O. INTL ARPT MOCLDY    42  30  62 NE10      30.41R
N.O. LAKEFRONT PTCLDY    43  30  60 E17       30.42R
SLIDELL        MOCLDY    37  26  64 NE7       30.42R WCI  32
BATON ROUGE    CLOUDY    35  25  66 NE8       30.40R WCI  29
BOOTHVILLE     MOCLDY    50  43  77 NE13G20   30.37R
BELLE CHASSE   MOCLDY    42  29  59 NE9       30.40R
BOGALUSA*        N/A     34  27  75 N3        30.46S
GALLIANO*      PTSUNNY   46  38  72 MISG      30.38R
NEW ROADS*     PTSUNNY   36  25  64 E8        30.40S WCI  29
GONZALES*        N/A     37  28  67 NE9       30.39S WCI  31
HAMMOND*       CLOUDY    36  25  64 E8        30.44R WCI  29
HOUMA*         MOCLDY    43  32  65 NE14      30.38R
PORT FOURCHON* CLOUDY    48  41  76 NE18      30.38S

$$

MSZ070-080>082-281400-
SOUTHERN MISSISSIPPI

CITY           SKY/WX    TMP DP  RH WIND       PRES   REMARKS
MCCOMB         CLEAR     33  22  63 E7        30.41F WCI  27
GULFPORT       CLEAR     36  24  62 N12       30.43R WCI  28
BILOXI         PTCLDY    36  26  66 NE10      30.42R WCI  29
PASCAGOULA     CLEAR     36  27  69 NE8       30.43R WCI  30

$$

COASTAL OBSERVATIONS
LAKE AND NEARSHORE STATIONS

STATION/POSITION TIME  TEMP    WIND        PRES    WAVE
                       AIR SEA DIR/SP/G            HT/PER
                 (UTC) (F)     (DEG/KT/KT) (MB)    (FT/S)
PASCAGOULA       1300   39      30/ 13/ 16 1029.5
WAVELAND YACHT   1300   38 46   40/ 14/ 16 1029.7
GRAND ISLE       1300   48 52   50/ 15/ 19 1028.1
SOUTHWEST PASS   1300   55 47   40/ 14/ 16 1027.5
NEW CANAL        1300   42      50/ 17/ 20 1029.4
SHELL BEACH      1300   44 49   50/ 17/ 19 1029.2

OFFSHORE STATIONS

STATION/POSITION TIME  TEMP    WIND        PRES    WAVE
                       AIR SEA DIR/SP/G            HT/PER
                 (UTC) (F)     (DEG/KT/KT) (MB)    (FT/S)
64 S DAUPHIN ISL 1159   59 69   90/ 17/ 19 1027.9    6/ 7

$$




USA.gov is the U.S. government's official web portal to all federal, state and local government web resources and services.